Skip Page Navigation
NASA JPL Caltech
NASA Logo - Jet Propulsion Laboratory + View the NASA Portal
+ Near-Earth Object (NEO) Program
Search JPL
JPL Home Earth Solar System Stars & Galaxies Technology
JPL Solar System Dynamics
BODIES ORBITS EPHEMERIDES TOOLS PHYSICAL DATA DISCOVERY FAQ SITE MAP
JPL Small-Body Database Browser
Search: [ help ]  
263251 Pandabear (2008 AA119)
Classification: Main-belt Asteroid          SPK-ID: 2263251
Ephemeris | Orbit Diagram | Orbital Elements | Physical Parameters | Discovery Circumstances ]

[ hide orbit diagram ]
Orbit Diagram
Note: Make sure you have Java enabled on your browser to see the applet. This applet is provided as a 3D orbit visualization tool. The applet was implemented using 2-body methods, and hence should not be used for determining accurate long-term trajectories (over several years or decades) or planetary encounter circumstances. For accurate long-term ephemerides, please instead use our Horizons system.
Orbit Viewer

Additional Notes: the orbits shown in the applet are color coded. The planets are white lines, and the asteroid/comet is a blue line. The bright white line indicates the portion of the orbit that is above the ecliptic plane, and the darker portion is below the ecliptic plane. Likewise for the asteroid/comet orbit, the light blue indicates the portion above the ecliptic plane, and the dark blue the portion below the ecliptic plane.

Orbit Viewer applet originally written and kindly provided by Osamu Ajiki (AstroArts), and further modified by Ron Baalke (JPL).


Orbital Elements at Epoch 2456400.5 (2013-Apr-18.0) TDB
Reference: MPO227259 (heliocentric ecliptic J2000)
 Element Value Uncertainty (1-sigma)   Units 
e 0.1359379 n/a  
a 2.2613705 n/a AU
q 1.9539645 n/a AU
i 6.66593 n/a deg
node 110.38711 n/a deg
peri 240.73794 n/a deg
M 313.99630 n/a deg
tp 2456559.2253448
(2013-Sep-23.72534480)
n/a JED
period 1242.0984425
3.40
n/a
n/a
d
yr
n 0.28983210 n/a deg/d
Q 2.5687765 n/a AU
  Orbit Determination Parameters
   # obs. used (total)      49  
   first obs. used      2003-??-??  
   last obs. used      2012-03-25  
   # oppositions      5  
   planetary ephem.      DE403  
   condition code      1  
   fit RMS      0.49  
   data source      MPC:mpu  
   producer      MPCLINUX  

Additional Information
 T_jup = 3.598 

Ephemeris | Orbit Diagram | Orbital Elements | Physical Parameters | Discovery Circumstances ]

Physical Parameter Table
Parameter Symbol Value Units Sigma Reference Notes
absolute magnitude H 17.4 mag n/a MPO227259  

263251 Pandabear           Discovered 2008 Jan. 6 by P. A. Wiegert and A. Papadimos at Mauna Kea.
The Giant Panda is an endangered species and is a favourite animal to many. This is to honour this cute and wonderful animal and should the giant panda ever become extinct then at least one will still exist in our solar system.
NOTE: some special characters may not display properly (any characters within {} are an attempt to place the proper accent above a character)
Reference: 20110615/MPCPages.arcLast Updated: 2013-03-28
Ephemeris | Orbit Diagram | Orbital Elements | Physical Parameters | Discovery Circumstances ]
ABOUT SSD CREDITS/AWARDS PRIVACY/COPYRIGHT GLOSSARY LINKS
FirstGov 2013-May-19 13:44 UT
(server date/time)  
NASA Home Page
Site Manager:   Donald K. Yeomans
Webmaster  Alan B. Chamberlin